Location: Frizzleburg
(41.0764°N, 80.4548°W)
Time: 08:13:17
(UTC+00:00)

ATLAS 2AS CENTAUR R/B - Pass Details

Date: 17 November 2019
Orbit: 926 x 1286 km, 63.7° (Epoch: 09 December)

Event Time Altitude Azimuth Distance (km) Brightness Sun altitude
Exits shadow 10:41:51 10° 327° (NNW) 3,212 4.8 -16.9°
Reaches altitude 10° 10:41:57 10° 327° (NNW) 3,178 4.8 -16.9°
Maximum altitude 10:49:37 83° 55° (NE) 1,161 2.9 -15.5°
Drops below altitude 10° 10:56:34 10° 144° (SE) 2,902 5.7 -14.2°
Sets 10:59:06 0° 145° (SE) 3,804 6.4 -13.7°
